User: anonymous   Login
Location: Arrakis Observatory
(44.1122°N, 95.7153°W)
Time: 06:39:36
(UTC-06:00)
Language:

Coronas F rocket - Orbit

View from above orbital plane
View from above orbital plane
View from above satellite
View from above satellite

Ground track
Ground track

The orbit data is extracted from the following two-line orbital elements,

1 26874U 01032B   15061.17625435  .00021352  00000-0  25623-3 0  9993
2 26874 082.4664 071.5443 0013403 171.5449 188.6036 15.60636954761411
Epoch (UTC): 02 March 2015 04:13:48
Eccentricity: 0.0013403
inclination: 82.4664°
perigee height: 377 km
apogee height: 395 km
right ascension of ascending node: 71.5443°
argument of perigee: 171.5449°
revolutions per day: 15.60636954
mean anomaly at epoch: 188.6036°
orbit number at epoch: 76141

The dashed part of the orbit path shows where the satellite is in the earth's shadow,  

DLR